Voltar ao catálogo

STARLINK-31186

AtivoComunicaçõesVLEO
NORAD 59030·PAYLOAD·🇺🇸 United States

Lançado Feb 25, 2024 de Cape Canaveral Space Force Station

Loading…

Próximas Passagens (próximas 24 horas)

TLE

AtualizadoSource: CelesTrak SupGP

Época: Sep 15, 2026, 03:25 UTC

1 59030C 24038H   26258.14284722 -.00014657  00000+0 -53085-3 0  2583
2 59030  43.0043  37.3067 0001452 266.3440 322.6041 15.27587198    18

Acompanhe STARLINK-31186 em tempo real com AllMySat

Download on the App Store